Track COSMOS 626 now! 10-day predictions COSMOS 626 is classified as:
1 07005U 73108A 21023.87614011 -.00000086 00000-0 -51700-8 0 9994 2 07005 65.4385 84.3624 0052076 181.5444 178.5468 13.85367258381705